Tiempo cada hora Mundo Novo

Hoy, 22 Octubre, Jueves

Tiempo Temperatura Precipitaciones Viento Presión Humedad
00:00 +20°C° 0 mm 2 mps 714 mmHg 94%
01:00 +21°C° 0 mm 2 mps 714 mmHg 92%
02:00 +21°C° 0 mm 2 mps 714 mmHg 90%
03:00 +21°C° 0 mm 3 mps 713 mmHg 88%
04:00 +21°C° 0 mm 3 mps 714 mmHg 87%
05:00 +23°C° 0 mm 2 mps 714 mmHg 86%
06:00 +23°C° 0 mm 2 mps 715 mmHg 85%
07:00 +24°C° 0 mm 2 mps 715 mmHg 80%
08:00 +25°C° 0 mm 2 mps 715 mmHg 75%
09:00 +25°C° 0 mm 2 mps 716 mmHg 70%
10:00 +28°C° 0 mm 2 mps 715 mmHg 61%
11:00 +30°C° 0 mm 2 mps 715 mmHg 52%
12:00 +33°C° 0 mm 3 mps 715 mmHg 43%
13:00 +34°C° 0 mm 3 mps 714 mmHg 38%
14:00 +35°C° 0 mm 3 mps 713 mmHg 34%
15:00 +36°C° 0 mm 3 mps 712 mmHg 29%
16:00 +34°C° 0 mm 2 mps 712 mmHg 34%
17:00 +31°C° 0 mm 2 mps 713 mmHg 39%
18:00 +29°C° 0 mm 2 mps 713 mmHg 44%
19:00 +27°C° 0 mm 3 mps 713 mmHg 54%
20:00 +26°C° 0 mm 3 mps 714 mmHg 64%
21:00 +25°C° 0 mm 4 mps 714 mmHg 75%
22:00 +24°C° 0 mm 3 mps 714 mmHg 78%
23:00 +22°C° 0 mm 3 mps 714 mmHg 81%

Mañana, 23 Octubre, Viernes

Tiempo Temperatura Precipitaciones Viento Presión Humedad
00:00 +23°C° 0 mm 2 mps 714 mmHg 84%
01:00 +22°C° 0 mm 1 mps 714 mmHg 88%
02:00 +21°C° 0 mm 1 mps 713 mmHg 91%
03:00 +20°C° 0 mm 1 mps 713 mmHg 94%
04:00 +21°C° 0 mm 1 mps 713 mmHg 92%
05:00 +20°C° 0 mm 2 mps 714 mmHg 90%
06:00 +21°C° 0 mm 3 mps 714 mmHg 87%
07:00 +22°C° 0 mm 3 mps 715 mmHg 79%
08:00 +25°C° 0 mm 3 mps 715 mmHg 71%
09:00 +26°C° 0 mm 3 mps 716 mmHg 62%
10:00 +28°C° 0 mm 3 mps 716 mmHg 54%
11:00 +30°C° 0 mm 3 mps 715 mmHg 45%
12:00 +34°C° 0 mm 3 mps 715 mmHg 37%
13:00 +34°C° 0 mm 3 mps 714 mmHg 34%
14:00 +35°C° 0 mm 3 mps 713 mmHg 32%
15:00 +35°C° 0 mm 3 mps 712 mmHg 29%
16:00 +34°C° 0 mm 3 mps 713 mmHg 35%
17:00 +32°C° 0 mm 4 mps 713 mmHg 41%
18:00 +29°C° 0 mm 4 mps 713 mmHg 47%
19:00 +27°C° 0 mm 4 mps 713 mmHg 56%
20:00 +26°C° 0 mm 4 mps 713 mmHg 64%
21:00 +23°C° 0 mm 4 mps 714 mmHg 73%
22:00 +24°C° 0 mm 3 mps 714 mmHg 77%
23:00 +22°C° 0 mm 3 mps 714 mmHg 81%

Pasado mañana, 24 Octubre, Sábado

Tiempo Temperatura Precipitaciones Viento Presión Humedad
00:00 +21°C° 0 mm 3 mps 714 mmHg 86%
01:00 +21°C° 0 mm 2 mps 713 mmHg 86%
02:00 +21°C° 0 mm 2 mps 713 mmHg 87%
03:00 +21°C° 0 mm 2 mps 713 mmHg 87%
04:00 +21°C° 0 mm 2 mps 713 mmHg 88%
05:00 +21°C° 0 mm 2 mps 714 mmHg 89%
06:00 +21°C° 0 mm 2 mps 714 mmHg 89%
07:00 +24°C° 0 mm 2 mps 714 mmHg 79%
08:00 +26°C° 0 mm 2 mps 715 mmHg 69%
09:00 +28°C° 0 mm 3 mps 715 mmHg 59%
10:00 +29°C° 0 mm 3 mps 715 mmHg 53%
11:00 +31°C° 0 mm 3 mps 714 mmHg 47%
12:00 +33°C° 0 mm 3 mps 714 mmHg 42%
13:00 +33°C° 0 mm 3 mps 713 mmHg 40%
14:00 +34°C° 0 mm 3 mps 712 mmHg 39%
15:00 +34°C° 0 mm 3 mps 712 mmHg 38%
16:00 +31°C° 0 mm 3 mps 712 mmHg 42%
17:00 +30°C° 0 mm 3 mps 712 mmHg 46%
18:00 +28°C° 0 mm 2 mps 712 mmHg 50%
19:00 +27°C° 0 mm 3 mps 712 mmHg 60%
20:00 +26°C° 0 mm 3 mps 712 mmHg 69%
21:00 +25°C° 0 mm 4 mps 713 mmHg 79%
22:00 +24°C° 0 mm 3 mps 712 mmHg 82%
23:00 +22°C° 0 mm 3 mps 712 mmHg 85%

, 25 Octubre, Domingo

Tiempo Temperatura Precipitaciones Viento Presión Humedad
00:00 +21°C° 0 mm 2 mps 712 mmHg 88%
01:00 +21°C° 0 mm 2 mps 712 mmHg 87%
02:00 +21°C° 0 mm 2 mps 712 mmHg 86%
03:00 +21°C° 0 mm 2 mps 712 mmHg 86%
04:00 +21°C° 0 mm 2 mps 712 mmHg 85%
05:00 +21°C° 0 mm 2 mps 712 mmHg 85%
06:00 +23°C° 0 mm 1 mps 713 mmHg 84%
07:00 +23°C° 0.1 mm 1 mps 713 mmHg 81%
08:00 +24°C° 0.1 mm 1 mps 713 mmHg 78%
09:00 +25°C° 0.1 mm 1 mps 714 mmHg 74%
10:00 +27°C° 0 mm 2 mps 713 mmHg 65%
11:00 +29°C° 0 mm 2 mps 713 mmHg 56%
12:00 +31°C° 0 mm 2 mps 712 mmHg 47%
13:00 +32°C° 0 mm 2 mps 712 mmHg 43%
14:00 +34°C° 0 mm 2 mps 711 mmHg 40%
15:00 +35°C° 0 mm 2 mps 710 mmHg 37%
16:00 +32°C° 0 mm 2 mps 710 mmHg 41%
17:00 +30°C° 0 mm 2 mps 710 mmHg 45%
18:00 +29°C° 0 mm 2 mps 710 mmHg 49%
19:00 +28°C° 0 mm 2 mps 711 mmHg 54%
20:00 +27°C° 0 mm 3 mps 711 mmHg 59%
21:00 +26°C° 0 mm 3 mps 711 mmHg 65%
22:00 +25°C° 0 mm 2 mps 711 mmHg 72%
23:00 +24°C° 0 mm 2 mps 711 mmHg 79%

25 Octubre, Domingo

Tiempo Temperatura Precipitaciones Viento Presión Humedad
00:00 +21°C° 0 mm 2 mps 712 mmHg 88%
01:00 +21°C° 0 mm 2 mps 712 mmHg 87%
02:00 +21°C° 0 mm 2 mps 712 mmHg 86%
03:00 +21°C° 0 mm 2 mps 712 mmHg 86%
04:00 +21°C° 0 mm 2 mps 712 mmHg 85%
05:00 +21°C° 0 mm 2 mps 712 mmHg 85%
06:00 +23°C° 0 mm 1 mps 713 mmHg 84%
07:00 +23°C° 0.1 mm 1 mps 713 mmHg 81%
08:00 +24°C° 0.1 mm 1 mps 713 mmHg 78%
09:00 +25°C° 0.1 mm 1 mps 714 mmHg 74%
10:00 +27°C° 0 mm 2 mps 713 mmHg 65%
11:00 +29°C° 0 mm 2 mps 713 mmHg 56%
12:00 +31°C° 0 mm 2 mps 712 mmHg 47%
13:00 +32°C° 0 mm 2 mps 712 mmHg 43%
14:00 +34°C° 0 mm 2 mps 711 mmHg 40%
15:00 +35°C° 0 mm 2 mps 710 mmHg 37%
16:00 +32°C° 0 mm 2 mps 710 mmHg 41%
17:00 +30°C° 0 mm 2 mps 710 mmHg 45%
18:00 +29°C° 0 mm 2 mps 710 mmHg 49%
19:00 +28°C° 0 mm 2 mps 711 mmHg 54%
20:00 +27°C° 0 mm 3 mps 711 mmHg 59%
21:00 +26°C° 0 mm 3 mps 711 mmHg 65%
22:00 +25°C° 0 mm 2 mps 711 mmHg 72%
23:00 +24°C° 0 mm 2 mps 711 mmHg 79%

26 Octubre, Lunes

Tiempo Temperatura Precipitaciones Viento Presión Humedad
00:00 +23°C° 0 mm 2 mps 711 mmHg 86%
01:00 +23°C° 0.2 mm 2 mps 711 mmHg 86%
02:00 +23°C° 0.2 mm 2 mps 711 mmHg 87%
03:00 +23°C° 0.2 mm 2 mps 711 mmHg 87%
04:00 +23°C° 0.1 mm 2 mps 711 mmHg 87%
05:00 +23°C° 0.1 mm 2 mps 712 mmHg 86%
06:00 +23°C° 0.1 mm 2 mps 712 mmHg 85%
07:00 +24°C° 0 mm 2 mps 712 mmHg 81%
08:00 +25°C° 0 mm 2 mps 712 mmHg 77%
09:00 +25°C° 0 mm 2 mps 712 mmHg 73%
10:00 +28°C° 0 mm 2 mps 712 mmHg 63%
11:00 +31°C° 0 mm 2 mps 712 mmHg 52%
12:00 +35°C° 0 mm 2 mps 711 mmHg 41%
13:00 +35°C° 0 mm 2 mps 711 mmHg 39%
14:00 +36°C° 0 mm 2 mps 710 mmHg 38%
15:00 +36°C° 0 mm 2 mps 710 mmHg 36%
16:00 +32°C° 2.8 mm 2 mps 710 mmHg 53%
17:00 +28°C° 2.8 mm 3 mps 709 mmHg 69%
18:00 +25°C° 2.8 mm 3 mps 709 mmHg 86%
19:00 +24°C° 7.4 mm 3 mps 710 mmHg 89%
20:00 +24°C° 7.4 mm 2 mps 711 mmHg 92%
21:00 +23°C° 7.4 mm 2 mps 711 mmHg 94%
22:00 +23°C° 0.3 mm 1 mps 711 mmHg 94%
23:00 +23°C° 0.3 mm 1 mps 711 mmHg 93%

27 Octubre, Martes

Tiempo Temperatura Precipitaciones Viento Presión Humedad
00:00 +21°C° 0.3 mm 0 mps 711 mmHg 92%
01:00 +23°C° 0.1 mm 1 mps 711 mmHg 93%
02:00 +23°C° 0.1 mm 1 mps 711 mmHg 94%
03:00 +23°C° 0.1 mm 1 mps 710 mmHg 94%
04:00 +23°C° 0.2 mm 1 mps 711 mmHg 94%
05:00 +23°C° 0.2 mm 1 mps 711 mmHg 94%
06:00 +23°C° 0.2 mm 1 mps 711 mmHg 93%
07:00 +24°C° 0.2 mm 1 mps 712 mmHg 90%
08:00 +24°C° 0.2 mm 1 mps 712 mmHg 87%
09:00 +25°C° 0.2 mm 1 mps 713 mmHg 84%
10:00 +25°C° 0.6 mm 1 mps 712 mmHg 83%
11:00 +25°C° 0.6 mm 1 mps 712 mmHg 83%
12:00 +25°C° 0.6 mm 1 mps 712 mmHg 82%
13:00 +25°C° 0.7 mm 1 mps 711 mmHg 84%
14:00 +24°C° 0.7 mm 1 mps 711 mmHg 86%
15:00 +24°C° 0.7 mm 1 mps 710 mmHg 88%
16:00 +24°C° 0.2 mm 1 mps 710 mmHg 89%
17:00 +23°C° 0.2 mm 1 mps 710 mmHg 89%
18:00 +23°C° 0.2 mm 1 mps 710 mmHg 90%
19:00 +23°C° 0 mm 1 mps 710 mmHg 90%
20:00 +21°C° 0 mm 0 mps 710 mmHg 90%
21:00 +21°C° 0 mm 0 mps 711 mmHg 90%
22:00 +20°C° 0 mm 0 mps 710 mmHg 91%
23:00 +20°C° 0 mm 0 mps 710 mmHg 91%
Mostrar más

Necesitamos Su Consentimiento

Meteoprog y nuestros Proveedores de Servicios pueden almacenar y acceder a sus datos personales como cookies, identificadores de dispositivo u otras tecnologías similares de su dispositivo y procesar dichos datos para personalizar contenido y anuncios, además de ofrecer funciones de redes sociales y analizar el tráfico.

  • Almacenar y/o acceder a información en su dispositivo

    Se puede almacenar o acceder a cookies, identificadores de dispositivo u otra información de su dispositivo para los fines anteriormente indicados.

  • Anuncios y contenido personalizados, medición de anuncios y contenido, percepciones del público, y desarrollo de productos

    Los anuncios y el contenido pueden personalizarse en base a su perfil. Se pueden añadir más datos para personalizar mejor los anuncios y contenidos. Se puede medir el rendimiento de los anuncios y contenidos. Se puede obtener la percepción sobre el público que ha visto los anuncios y contenidos. Dichos datos pueden usarse para desarrollar o mejorar la experiencia del usuario, sistemas y software.

Al hacer clic en ‘Estoy De Acuerdo’ usted permitirá el uso de las cookies, identificadores de dispositivo, balizas web u otras tecnologías similares indicadas. Su configuración puede cambiarse desde el navegador de su dispositivo.

Para ciertos fines, los intereses legítimos pueden ser considerados por encima del consentimiento. Puede leer más sobre ello en nuestra Política de Privacidad y Cookies.